Location: Sungai Juaw
(2.6833°N, 113.5333°E)
Time: 22:40:50
(UTC+00:00)

Cosmos 1300 Rocket - Pass Details

Date: 04 August 2024
Orbit: 597 x 622 km, 82.5° (Epoch: 19 September)

Event Time Altitude Azimuth Distance (km) Brightness Sun altitude
Rises 21:29:20 0° 185° (S) 2,848 6.7 -14.1°
Reaches altitude 10° 21:31:32 10° 185° (S) 1,947 5.9 -13.6°
Maximum altitude 21:35:51 86° 272° (W) 611 3.4 -12.6°
Drops below altitude 10° 21:40:11 10° 3° (N) 1,955 6.4 -11.6°
Sets 21:42:24 0° 3° (N) 2,862 7.3 -11.0°
